Espace membre
Imprimable
Antwerpen, 22/04/2012, BEL - DVV Antwerp 10 Miles & Marathon
Liste des rapports > Marathon - Classement
Recherche: Page: [1]
33 Entrées
 
Les réclamations ne sont plus acceptées, les résultats sont considérés comme définitifs.
RangNrNomAgeIOCTempsTkmMoy.ScrLocalité
1.472CIRELLI Mario60BEL3:13:104:35 13.11187JUMET (CHARLEROTéléchargez votre diplome!
2.1910BEMONG Marc64BEL3:29:004:58 12.11377TIELT (BT.)Téléchargez votre diplome!
3.875VROMAN Herwig61BEL3:33:135:04 11.87441KRUISHOUTEMTéléchargez votre diplome!
4.306SUHONEN Pekka63FIN3:35:445:07 11.74489KERAVATéléchargez votre diplome!
5.1933NELSEN Ferdinand62BEL3:38:495:12 11.57541BONHEIDENTéléchargez votre diplome!
6.542VAN LITSENBURG Johan60NLD3:39:065:12 11.56546DUIZELTéléchargez votre diplome!
7.817BULCAEN Boudewijn64BEL3:46:005:22 11.20674KUURNETéléchargez votre diplome!
8.1191VAN DEN BERGH Jos62BEL3:47:185:24 11.14698KALMTHOUTTéléchargez votre diplome!
9.674BRADT Eric61BEL3:49:195:27 11.04741WILLEBROEKTéléchargez votre diplome!
10.490BOGAARD Jan61NLD3:51:525:30 10.92791OLDEBROEKTéléchargez votre diplome!
11.450VANHERCK Marcel60BEL3:54:095:33 10.81840HERSTALTéléchargez votre diplome!
12.1952VANDER DONCKT Philippe603:58:195:39 10.62970Téléchargez votre diplome!
13.1493HOEKEN Michel64BEL3:59:135:41 10.58981KINROOITéléchargez votre diplome!
14.1274DE COCQ Roger60BEL4:03:045:46 10.421046HEIST-OP-DEN-BETéléchargez votre diplome!
15.848GEYS Rob64BEL4:03:195:46 10.411049ANTWERPEN 1Téléchargez votre diplome!
16.694VAN LOO Karel60BEL4:10:125:56 10.121133HOFSTADE (BT.)Téléchargez votre diplome!
17.1169QUINTELIER Paul61BEL4:12:366:00 10.021178SINT-GILLIS-WAATéléchargez votre diplome!
18.644DURAND Patrick62FRA4:14:266:02 9.951218LONGPRE LES DORTéléchargez votre diplome!
19.842VERBEECK Marc60BEL4:14:456:03 9.941223HOVETéléchargez votre diplome!
20.819SOENENS Bernard63BEL4:16:126:05 9.881246ANTWERPENTéléchargez votre diplome!
21.1564JACOBS Joseph64BEL4:21:386:13 9.681304EKEREN (ANTWERPTéléchargez votre diplome!
22.1044APIECIONEK Vicenty64BEL4:21:506:13 9.671309BOECHOUTTéléchargez votre diplome!
23.1821PAUWELS Luk61BEL4:23:076:15 9.621323OUDENBURGTéléchargez votre diplome!
24.354VAN GENT Guido60BEL4:24:016:16 9.591337OVERIJSETéléchargez votre diplome!
25.741BUIS Hans61NLD4:24:596:17 9.551347DE RIJPTéléchargez votre diplome!
26.167HOLTHUIZEN Jos62NLD4:26:096:19 9.511358WEERTTéléchargez votre diplome!
27.1499HUANG Ching-Te63TWN4:26:186:19 9.511362TAIPEITéléchargez votre diplome!
28.1043DAELE Frank64BEL4:27:056:20 9.481376GENTTéléchargez votre diplome!
29.1484CEULEMANS Frederik60BEL4:27:266:21 9.471382BEGIJNENDIJKTéléchargez votre diplome!
30.1600AERTS Jean61BEL4:36:276:34 9.161467ZONHOVENTéléchargez votre diplome!
31.797MARBAIX Lucien63BEL4:59:067:06 8.461562BRUXELLES 18Téléchargez votre diplome!
32.1237DE PAUW Luc60BEL4:59:207:06 8.461563TIELRODETéléchargez votre diplome!
33.1864MEYERS Andre605:05:197:15 8.291572Téléchargez votre diplome!
DNF: abandon; DSQ: disqualifié; Vitesse en km/h